User: anonymous   Login
Location: Albert
(44.3172°N, 77.1347°W)
Time: 06:09:32
(UTC+00:00)
Language:

ISS - Orbit

View from above orbital plane
View from above orbital plane
View from above satellite
View from above satellite

Ground track
Ground track

The orbit data is extracted from the following two-line orbital elements,

1 25544U 98067A   21336.00241693  .00004276  00000-0  86543-4 0  9999
2 25544  51.6441 232.9436 0004376 267.2118 212.1875 15.48725640314601
Epoch (UTC): 02 December 2021 00:03:28
Eccentricity: 0.0004376
inclination: 51.6441°
perigee height: 417 km
apogee height: 423 km
right ascension of ascending node: 232.9436°
argument of perigee: 267.2118°
revolutions per day: 15.48725640
mean anomaly at epoch: 212.1875°
orbit number at epoch: 31460

The dashed part of the orbit path shows where the satellite is in the earth's shadow,  

DLR